Regional Weather Roundup
Issued by NWS

Home | Current Version | Previous Version | Graphics & Text | Print | Product List | Glossary On
Versions: 1 2 3 4 5 6 7 8 9 10 11 12 13 14 15 16 17 18 19 20 21 22 23 24 25 26 27 28 29 30 31 32 33 34 35 36 37 38 39 40 41 42 43 44 45 46 47 48 49 50
633
ASUS45 KBOU 121707
RWRCO

WEATHER ROUNDUP FOR COLORADO
NATIONAL WEATHER SERVICE DENVER/BOULDER CO
1000 AM MST FRI FEB 12 2016

NOTE: "FAIR" INDICATES FEW OR NO CLOUDS BELOW 12000 FEET WITH NO
SIGNIFICANT WEATHER AND/OR OBSTRUCTIONS TO VISIBILITY.

COZ001>005-013-030-031-121800-
...NORTHWEST COLORADO...

CITY           SKY/WX    TMP DP  RH WIND       PRES   REMARKS
CRAIG          FAIR      16  12  84 CALM      30.45S
HAYDEN         FAIR      28  16  59 SE9       30.43S WCI  20
MEEKER         FAIR      28  16  60 CALM      30.44S
MOUNT WERNER   NOT AVBL
STEAMBOAT SPGS FAIR      22  12  67 CALM      30.44S
WALDEN         PTSUNNY   34  18  51 S6        30.42S WCI  29
$$

COZ006>008-011-121800-
...WEST CENTRAL VALLEYS...

CITY           SKY/WX    TMP DP  RH WIND       PRES   REMARKS
GRAND JUNCTION FAIR      35  24  64 CALM      30.45F
MONTROSE       FAIR      37  21  52 SE3       30.47F
EAGLE          SUNNY     25  16  68 CALM      30.52F
RIFLE          FAIR      25  16  68 CALM      30.48S
DELTA          FAIR      38  23  56 E5        30.48S
NUCLA          FAIR      36  23  60 CALM      30.49S
$$

COZ017>023-064>068-121800-
...SOUTHWEST COLORADO...

CITY           SKY/WX    TMP DP  RH WIND       PRES   REMARKS
DURANGO        FAIR      30  21  69 NE5       30.44F WCI  25
CORTEZ         FAIR      37  19  48 CALM      30.45S
PAGOSA SPRINGS FAIR      38  14  37 CALM      30.46S
TELLURIDE      FAIR      40  19  43 SE3       30.51S
WOLF CREEK PAS FAIR      36  16  44 N7        30.62R
$$

COZ009-010-012-014-032>034-037-058>063-121800-
...CENTRAL COLORADO...

CITY           SKY/WX    TMP DP  RH WIND       PRES   REMARKS
ASPEN          FAIR      36  20  52 CALM      30.45S
BUENA VISTA    FAIR      40  20  44 CALM      30.44S
COPPER MTN     FAIR      34  12  40 W12       30.54R WCI  25
BERTHOUD PASS  FAIR      27  16  63 NW36G49   30.49R WCI   9
COTTONWOOD PAS FAIR      43  12  28 E8        30.48R
GUNNISON       FAIR       0 -20  38 CALM      30.61S
KREMMLING      FAIR      12   1  62 CALM      30.52S
LEADVILLE      FAIR      40  14  34 N8        30.46S
MONARCH PASS   FAIR      30  12  47 W24       30.64S WCI  16
SALIDA         NOT AVBL
SUNLIGHT       FAIR      37  18  44 CALM        N/A
WILKERSON PASS FAIR      34  16  47 SW3       30.53S
$$

COZ069>075-121800-
...SAN LUIS VALLEY/SANGRE DE CRISTO MOUNTAINS...

CITY           SKY/WX    TMP DP  RH WIND       PRES   REMARKS
ALAMOSA        FAIR      35  24  64 CALM      30.47F
LA VETA PASS   FAIR      39  12  33 S7        30.50R
SAGUACHE       FAIR      37  16  41 NW7       30.49R
$$

COZ035-036-038>040-121800-
...NORTHERN COLORADO FRONT RANGE...

CITY           SKY/WX    TMP DP  RH WIND       PRES   REMARKS
DENVER INTL AP FAIR      42  27  55 W7        30.31R
DMNS CITY PARK   N/A     45  26  47 NW3G14    30.32S
AURORA         MOSUNNY   46  27  46 W2        30.31R
FRONT RANGE AP PTSUNNY   41  30  65 MISG      30.32R
ERIE MUNI ARPT FAIR      42  28  58 N3        30.32S
BOULDER MUN AP FAIR      43  27  52 CALM      30.31S
CENTENNIAL     FAIR      47  27  45 N7        30.30S
BROOMFIELD     PTSUNNY   43  27  52 N7        30.32R
FORT COLLINS   FAIR      43  28  56 E3        30.33R
LONGMONT       FAIR      46  29  52 CALM      30.33S
$$

COZ041-046-047-076>085-087-088-121800-
...PIKES PEAK/PALMER DIVIDE AND SOUTHERN FOOTHILLS...

CITY           SKY/WX    TMP DP  RH WIND       PRES   REMARKS
COLO. SPRINGS  FAIR      46  23  40 CALM      30.35S
A. F. ACADEMY  FAIR      45  25  45 S6        30.33S
SCHRIEVER AFB  FAIR      44  23  42 S5        30.34S
ELLICOTT       FAIR     N/A N/A N/A SW7       30.33S
FALCON         FAIR      45  23  42 CALM      30.36S
FORT CARSON    FAIR      46  26  45 NE6       30.33S
LIMON          CLOUDY    43  30  60 CALM      30.33R
MONUMENT HILL  FAIR      45  28  53 S5        30.35S
TRINIDAD       FAIR      56  18  22 S3        30.33F
$$

COZ042>045-048>051-090-091-121800-
...NORTHEAST COLORADO...

CITY           SKY/WX    TMP DP  RH WIND       PRES   REMARKS
GREELEY ARPT   CLOUDY    36  28  75 CALM      30.34R
AKRON          CLOUDY    42  31  64 NE6       30.32S
BURLINGTON     FAIR      47  28  47 S6        30.34S
WRAY           NOT AVBL
STERLING       CLOUDY    37  32  81 CALM      30.33S
HOLYOKE        FAIR      37  32  81 NE12      30.37R
FORT MORGAN    PTSUNNY   37  29  75 CALM      30.33R
$$

COZ086-089-092>099-121800-
...SOUTHEAST COLORADO...

CITY           SKY/WX    TMP DP  RH WIND       PRES   REMARKS
PUEBLO         FAIR      46  28  49 SE3       30.33S
LA JUNTA       FAIR      47  29  49 SW3       30.33F
LAMAR          FAIR      46  29  51 VRB3      30.34S
SPRINGFIELD      N/A     54  26  34 S10       30.35R
$$




USA.gov is the U.S. government's official web portal to all federal, state and local government web resources and services.